Find Telecom 1C

NORAD ID: 18952 Int'l Des: 1988-018 Owner: FTEL Country: F operational
HEOCIRCULAR

リアルタイム位置

3D地球を読み込み中...

Telecom 1Cについて

説明を読み込み中...

次回通過

Passes for default location (London). Set your location on the main map for personalized predictions.

高度履歴

Loading altitude history...

軌道要素

1 18952U 88018B 26133.95389634 -.00000151 00000-0 00000+0 0 9999
2 18952 15.0967 349.5632 0097334 153.3328 28.6990 0.97958959115112
Epoch: May 13, 2026 • Age: 17 hours

現在のステータス

高度 36372.9 km
速度 3.06 km/s
衛星直下点 14.45°N, 51.13°W
打ち上げ日 Mar 11, 1988
運用期間 38.1 years
タイプ other

技術仕様

分類 Payload
質量 693.00 kg
乾燥質量 525.00 kg
総質量 1213.00 kg
長さ 3.00 m
直径 2.20 m
スパン 16.00 m
形状 Box + 2 Pan
製造者 MATT
バスタイプ ECS
フェーズステータス In Orbit
所有者/国 FTEL/F

Most Searched